Lid_Strength_Index
6 7 7 7 7 7 7 7 6 6 5 5 5 5 5 5 6 3 2 1 1 1
6 6 6 6 6 7 6 6 6 6 6 6 5 5 5 6 4 3 3 2 1 1
5 5 5 5 6 6 6 6 7 6 6 6 5 5 4 6 5 4 3 2 3 1
5 5 5 6 6 6 6 6 7 6 6 6 6 6 5 5 4 4 4 3 2 2
5 5 5 6 7 7 7 7 8 8 8 8 7 7 7 7 6 5 4 2 2 2
6 6 6 6 7 8 8 8 8 8 8 9 9 9 8 7 7 6 5 3 2 1
6 6 6 5 6 7 7 8 8 8 9 9 9 10 9 7 7 6 5 3 1 3
5 6 5 5 5 5 6 7 7 8 8 9 9 9 10 10 10 7 6 4 1 3
4 4 4 4 5 5 6 7 7 7 8 9 9 9 9 8 9 7 5 4 1 2
4 4 4 5 5 6 5 6 8 7 7 9 9 9 9 9 7 6 5 3 2 1
4 5 5 5 5 5 5 5 7 9 7 8 9 9 9 9 6 3 3 3 2 2
4 5 6 6 7 6 6 6 6 8 9 8 9 9 10 10 8 7 3 2 0 1
3 4 6 6 6 6 5 6 7 7 8 8 9 9 10 10 9 8 8 6 3 4
2 3 5 5 5 6 5 5 6 6 7 8 9 9 9 10 11 9 8 8 7 8